• In Deutschland
  • Länderverzeichnis
  • Für 7 Tage
  • Wassertemperatur
  • Satellitenkarten
  • Wetterkarte
  • Widgets
  • user-avatar
    Anmelden

    Stündliche Wetter Friedrichsdorf

    Heute, 17 Oktober, Dienstag

    Zeit Temperatur Niederschläge Wind Luftdruck Luftfeuchtigkeit
    00:00 +14°C° 0 mm 1 m/S 747 mmHg 80%
    01:00 +14°C° 0 mm 1 m/S 747 mmHg 80%
    02:00 +14°C° 0 mm 1 m/S 747 mmHg 81%
    03:00 +14°C° 0 mm 1 m/S 747 mmHg 82%
    04:00 +14°C° 0 mm 1 m/S 747 mmHg 82%
    05:00 +13°C° 0 mm 1 m/S 747 mmHg 83%
    06:00 +13°C° 0 mm 1 m/S 747 mmHg 84%
    07:00 +13°C° 0 mm 1 m/S 747 mmHg 85%
    08:00 +15°C° 0 mm 1 m/S 747 mmHg 79%
    09:00 +16°C° 0 mm 1 m/S 747 mmHg 72%
    10:00 +19°C° 0 mm 1 m/S 747 mmHg 66%
    11:00 +21°C° 0 mm 1 m/S 747 mmHg 63%
    12:00 +22°C° 0 mm 1 m/S 747 mmHg 59%
    13:00 +23°C° 0 mm 1 m/S 747 mmHg 56%
    14:00 +23°C° 0 mm 1 m/S 746 mmHg 58%
    15:00 +23°C° 0 mm 1 m/S 746 mmHg 60%
    16:00 +22°C° 0 mm 1 m/S 745 mmHg 62%
    17:00 +21°C° 0 mm 1 m/S 745 mmHg 67%
    18:00 +19°C° 0 mm 1 m/S 745 mmHg 71%
    19:00 +16°C° 0 mm 1 m/S 745 mmHg 76%
    20:00 +16°C° 0 mm 1 m/S 744 mmHg 77%
    21:00 +15°C° 0 mm 1 m/S 744 mmHg 78%
    22:00 +14°C° 0 mm 1 m/S 744 mmHg 79%
    23:00 +14°C° 0 mm 1 m/S 744 mmHg 80%

    Morgen, 18 Oktober, Mittwoch

    Zeit Temperatur Niederschläge Wind Luftdruck Luftfeuchtigkeit
    00:00 +14°C° 0 mm 1 m/S 744 mmHg 80%
    01:00 +13°C° 0 mm 1 m/S 744 mmHg 81%
    02:00 +13°C° 0 mm 1 m/S 743 mmHg 81%
    03:00 +13°C° 0 mm 1 m/S 743 mmHg 82%
    04:00 +12°C° 0 mm 1 m/S 743 mmHg 82%
    05:00 +12°C° 0 mm 1 m/S 742 mmHg 82%
    06:00 +12°C° 0 mm 1 m/S 742 mmHg 82%
    07:00 +12°C° 0 mm 1 m/S 742 mmHg 83%
    08:00 +13°C° 0 mm 1 m/S 742 mmHg 76%
    09:00 +15°C° 0 mm 2 m/S 742 mmHg 69%
    10:00 +17°C° 0 mm 2 m/S 742 mmHg 63%
    11:00 +18°C° 0 mm 2 m/S 742 mmHg 59%
    12:00 +19°C° 0 mm 2 m/S 742 mmHg 56%
    13:00 +20°C° 0 mm 3 m/S 742 mmHg 53%
    14:00 +20°C° 0 mm 2 m/S 741 mmHg 55%
    15:00 +20°C° 0 mm 2 m/S 741 mmHg 57%
    16:00 +20°C° 0 mm 2 m/S 741 mmHg 59%
    17:00 +19°C° 0 mm 1 m/S 741 mmHg 64%
    18:00 +16°C° 0 mm 1 m/S 741 mmHg 70%
    19:00 +15°C° 0 mm 1 m/S 741 mmHg 75%
    20:00 +14°C° 0 mm 1 m/S 741 mmHg 76%
    21:00 +14°C° 0 mm 1 m/S 741 mmHg 78%
    22:00 +13°C° 0 mm 1 m/S 741 mmHg 79%
    23:00 +13°C° 0 mm 1 m/S 741 mmHg 80%

    übermorgen, 19 Oktober, Donnerstag

    Zeit Temperatur Niederschläge Wind Luftdruck Luftfeuchtigkeit
    00:00 +13°C° 0 mm 1 m/S 741 mmHg 80%
    01:00 +13°C° 0 mm 1 m/S 741 mmHg 81%
    02:00 +12°C° 0 mm 1 m/S 741 mmHg 81%
    03:00 +12°C° 0 mm 1 m/S 740 mmHg 81%
    04:00 +12°C° 0 mm 1 m/S 740 mmHg 81%
    05:00 +12°C° 0 mm 1 m/S 740 mmHg 82%
    06:00 +11°C° 0 mm 1 m/S 740 mmHg 82%
    07:00 +11°C° 0 mm 1 m/S 740 mmHg 82%
    08:00 +13°C° 0 mm 1 m/S 740 mmHg 76%
    09:00 +15°C° 0 mm 1 m/S 740 mmHg 69%
    10:00 +17°C° 0 mm 2 m/S 741 mmHg 63%
    11:00 +18°C° 0 mm 2 m/S 741 mmHg 60%
    12:00 +19°C° 0 mm 2 m/S 741 mmHg 56%
    13:00 +21°C° 0 mm 2 m/S 741 mmHg 52%
    14:00 +20°C° 0 mm 2 m/S 740 mmHg 55%
    15:00 +20°C° 0 mm 2 m/S 740 mmHg 57%
    16:00 +19°C° 0 mm 2 m/S 740 mmHg 59%
    17:00 +18°C° 0 mm 2 m/S 740 mmHg 61%
    18:00 +17°C° 0 mm 2 m/S 740 mmHg 63%
    19:00 +16°C° 0 mm 2 m/S 740 mmHg 66%
    20:00 +16°C° 0 mm 2 m/S 740 mmHg 67%
    21:00 +15°C° 0 mm 2 m/S 740 mmHg 68%
    22:00 +15°C° 0 mm 2 m/S 740 mmHg 69%
    23:00 +15°C° 0 mm 2 m/S 740 mmHg 70%

    20 Oktober, Freitag

    Zeit Temperatur Niederschläge Wind Luftdruck Luftfeuchtigkeit
    00:00 +14°C° 0 mm 2 m/S 740 mmHg 72%
    01:00 +14°C° 0 mm 2 m/S 740 mmHg 73%
    02:00 +14°C° 0,5 mm 2 m/S 740 mmHg 76%
    03:00 +14°C° 0,5 mm 2 m/S 740 mmHg 79%
    04:00 +14°C° 0,5 mm 2 m/S 740 mmHg 82%
    05:00 +14°C° 0,7 mm 2 m/S 740 mmHg 82%
    06:00 +13°C° 0,7 mm 3 m/S 740 mmHg 82%
    07:00 +13°C° 0,7 mm 3 m/S 740 mmHg 83%
    08:00 +14°C° 0,4 mm 4 m/S 740 mmHg 82%
    09:00 +15°C° 0,4 mm 4 m/S 740 mmHg 81%
    10:00 +15°C° 0,4 mm 5 m/S 741 mmHg 80%
    11:00 +16°C° 0 mm 5 m/S 741 mmHg 76%
    12:00 +17°C° 0 mm 5 m/S 741 mmHg 73%
    13:00 +17°C° 0 mm 5 m/S 741 mmHg 70%
    14:00 +17°C° 0 mm 5 m/S 740 mmHg 70%
    15:00 +18°C° 0 mm 4 m/S 740 mmHg 71%
    16:00 +18°C° 0 mm 4 m/S 740 mmHg 72%
    17:00 +17°C° 0 mm 3 m/S 741 mmHg 76%
    18:00 +16°C° 0 mm 3 m/S 741 mmHg 81%
    19:00 +15°C° 0 mm 2 m/S 741 mmHg 86%
    20:00 +14°C° 0 mm 2 m/S 741 mmHg 87%
    21:00 +14°C° 0 mm 2 m/S 741 mmHg 89%
    22:00 +14°C° 0 mm 2 m/S 742 mmHg 90%
    23:00 +14°C° 0 mm 2 m/S 741 mmHg 90%

    21 Oktober, Samstag

    Zeit Temperatur Niederschläge Wind Luftdruck Luftfeuchtigkeit
    00:00 +14°C° 0 mm 2 m/S 741 mmHg 89%
    01:00 +14°C° 0 mm 2 m/S 741 mmHg 88%
    02:00 +14°C° 0 mm 2 m/S 741 mmHg 87%
    03:00 +15°C° 0 mm 2 m/S 741 mmHg 85%
    04:00 +14°C° 0 mm 3 m/S 740 mmHg 83%
    05:00 +14°C° 0,6 mm 3 m/S 740 mmHg 85%
    06:00 +14°C° 0,6 mm 3 m/S 740 mmHg 87%
    07:00 +14°C° 0,6 mm 3 m/S 740 mmHg 89%
    08:00 +14°C° 0,3 mm 3 m/S 740 mmHg 89%
    09:00 +14°C° 0,3 mm 3 m/S 741 mmHg 88%
    10:00 +14°C° 0,3 mm 3 m/S 741 mmHg 88%
    11:00 +14°C° 0,9 mm 3 m/S 741 mmHg 88%
    12:00 +14°C° 0,9 mm 4 m/S 741 mmHg 89%
    13:00 +15°C° 0,9 mm 4 m/S 740 mmHg 90%
    14:00 +14°C° 1,6 mm 3 m/S 741 mmHg 90%
    15:00 +14°C° 1,6 mm 3 m/S 741 mmHg 91%
    16:00 +14°C° 1,6 mm 3 m/S 741 mmHg 91%
    17:00 +14°C° 0,2 mm 3 m/S 741 mmHg 91%
    18:00 +14°C° 0,2 mm 3 m/S 741 mmHg 90%
    19:00 +13°C° 0,2 mm 3 m/S 741 mmHg 89%
    20:00 +13°C° 0,1 mm 3 m/S 741 mmHg 88%
    21:00 +12°C° 0,1 mm 3 m/S 741 mmHg 87%
    22:00 +12°C° 0,1 mm 3 m/S 741 mmHg 86%
    23:00 +12°C° 0 mm 3 m/S 741 mmHg 87%

    22 Oktober, Sonntag

    Zeit Temperatur Niederschläge Wind Luftdruck Luftfeuchtigkeit
    00:00 +11°C° 0 mm 3 m/S 740 mmHg 87%
    01:00 +11°C° 0 mm 3 m/S 740 mmHg 88%
    02:00 +11°C° 0,1 mm 4 m/S 740 mmHg 87%
    03:00 +11°C° 0,1 mm 4 m/S 741 mmHg 86%
    04:00 +10°C° 0,1 mm 4 m/S 741 mmHg 84%
    05:00 +10°C° 0 mm 4 m/S 741 mmHg 84%
    06:00 +8°C° 0 mm 4 m/S 741 mmHg 84%
    07:00 +8°C° 0 mm 4 m/S 741 mmHg 85%
    08:00 +8°C° 0 mm 5 m/S 741 mmHg 81%
    09:00 +9°C° 0 mm 5 m/S 741 mmHg 76%
    10:00 +9°C° 0 mm 6 m/S 741 mmHg 72%
    11:00 +10°C° 0 mm 6 m/S 741 mmHg 71%
    12:00 +10°C° 0 mm 6 m/S 741 mmHg 69%
    13:00 +10°C° 0 mm 6 m/S 741 mmHg 67%
    14:00 +10°C° 0 mm 6 m/S 741 mmHg 68%
    15:00 +9°C° 0 mm 5 m/S 741 mmHg 68%
    16:00 +9°C° 0 mm 5 m/S 741 mmHg 69%
    17:00 +9°C° 0,1 mm 5 m/S 741 mmHg 71%
    18:00 +9°C° 0,1 mm 5 m/S 742 mmHg 74%
    19:00 +8°C° 0,1 mm 5 m/S 742 mmHg 76%
    20:00 +8°C° 0,3 mm 5 m/S 743 mmHg 79%
    21:00 +8°C° 0,3 mm 5 m/S 743 mmHg 81%
    22:00 +8°C° 0,3 mm 4 m/S 743 mmHg 84%
    23:00 +7°C° 0,2 mm 4 m/S 743 mmHg 84%
    Mehr zeigen